Location: Clanezzo
(45.7500°N, 9.6000°E)
Time: 16:20:46
(UTC+00:00)

EO-79 - Pass Details

Date: 09 July 2022
Orbit: 588 x 603 km, 98.0° (Epoch: 18 August)

Event Time Altitude Azimuth Distance (km) Brightness Sun altitude
Rises 02:16:12 0° 359° (N) 2,864 ? -11.8°
Reaches altitude 10° 02:18:49 10° 343° (NNW) 1,958 ? -11.5°
Maximum altitude 02:21:57 20° 296° (WNW) 1,399 ? -11.1°
Enters shadow 02:24:46 11° 251° (WSW) 1,862 ? -10.8°
